TimeMST,TemperatureF,Dew PointF,Humidity,Sea Level PressureIn,VisibilityMPH,Wind Direction,Wind SpeedMPH,Gust SpeedMPH,PrecipitationIn,Events,Conditions,WindDirDegrees,DateUTC
12:53 AM,52.0,27.0,38,29.94,10.0,SE,5.8,-,N/A,,Clear,140,2012-12-06 07:53:00
1:53 AM,51.1,27.0,39,29.94,10.0,SSE,6.9,-,N/A,,Clear,150,2012-12-06 08:53:00
2:53 AM,52.0,28.0,40,29.92,10.0,SE,3.5,-,N/A,,Clear,140,2012-12-06 09:53:00
3:53 AM,51.1,28.0,41,29.91,10.0,SSE,8.1,-,N/A,,Clear,150,2012-12-06 10:53:00
4:53 AM,51.1,28.0,41,29.89,10.0,SSE,12.7,-,N/A,,Clear,150,2012-12-06 11:53:00
5:53 AM,51.1,28.0,41,29.89,10.0,South,5.8,-,N/A,,Clear,170,2012-12-06 12:53:00
6:53 AM,50.0,28.9,44,29.90,10.0,SE,12.7,-,N/A,,Clear,140,2012-12-06 13:53:00
7:53 AM,52.0,28.0,40,29.91,10.0,SE,10.4,-,N/A,,Clear,140,2012-12-06 14:53:00
8:53 AM,55.9,28.0,34,29.91,10.0,SSE,9.2,-,N/A,,Clear,160,2012-12-06 15:53:00
9:53 AM,63.0,28.9,28,29.91,10.0,South,5.8,-,N/A,,Clear,180,2012-12-06 16:53:00
10:53 AM,66.9,30.0,25,29.91,10.0,WSW,3.5,-,N/A,,Clear,250,2012-12-06 17:53:00
11:53 AM,71.1,32.0,24,29.88,10.0,WNW,5.8,-,N/A,,Clear,300,2012-12-06 18:53:00
12:53 PM,73.9,30.9,21,29.84,10.0,NNW,3.5,-,N/A,,Clear,330,2012-12-06 19:53:00
1:53 PM,77.0,30.9,19,29.81,10.0,North,6.9,-,N/A,,Clear,350,2012-12-06 20:53:00
2:53 PM,77.0,32.0,19,29.79,10.0,North,6.9,-,N/A,,Clear,10,2012-12-06 21:53:00
3:53 PM,75.0,32.0,21,29.79,10.0,Calm,Calm,-,N/A,,Clear,0,2012-12-06 22:53:00
4:53 PM,75.0,32.0,21,29.78,10.0,NNE,3.5,-,N/A,,Clear,30,2012-12-06 23:53:00
5:53 PM,70.0,32.0,25,29.81,10.0,NW,3.5,-,N/A,,Clear,320,2012-12-07 00:53:00
6:53 PM,64.0,32.0,30,29.83,10.0,Calm,Calm,-,N/A,,Clear,0,2012-12-07 01:53:00
7:53 PM,62.1,30.9,31,29.84,10.0,South,6.9,-,N/A,,Clear,170,2012-12-07 02:53:00
8:53 PM,59.0,30.0,33,29.85,10.0,South,5.8,-,N/A,,Clear,180,2012-12-07 03:53:00
9:53 PM,57.0,30.0,36,29.86,10.0,South,3.5,-,N/A,,Clear,180,2012-12-07 04:53:00
10:53 PM,55.0,28.9,37,29.86,10.0,SSE,4.6,-,N/A,,Clear,160,2012-12-07 05:53:00
11:53 PM,55.0,28.9,37,29.85,10.0,South,4.6,-,N/A,,Clear,170,2012-12-07 06:53:00